Orbital Elements at Epoch 2459200.5 (2020-Dec-17.0) TDB
Reference: JPL 21 (heliocentric ecliptic J2000)
Element | Value | Uncertainty (1-sigma) | Units |
e | .1699422514445484 | 4.9249e-08 | |
a | 3.200883233526067 | 2.0468e-08 | au |
q | 2.656917930209541 | 1.5614e-07 | au |
i | 4.680222138198428 | 5.5304e-06 | deg |
node | 205.144604582291 | 4.5586e-05 | deg |
peri | 189.2841410636673 | 4.8387e-05 | deg |
M | 10.03681142056323 | 1.2811e-05 | deg |
tp | 2459142.182830351571 (2020-Oct-19.68283035) | 7.4634e-05 | TDB |
period | 2091.718195523909 5.73 | 2.0063e-05 5.493e-08 | d yr |
n | .1721073138677897 | 1.6508e-09 | deg/d |
Q | 3.744848536842594 | 2.3946e-08 | au |
|
| | Orbit Determination Parameters
Additional Information
|